Location: Rounton
(54.4000°N, 1.3500°W)
Time: 14:12:23
(UTC+00:00)

Transit 2A - Pass Details

Date: 04 December 2021
Orbit: 591 x 967 km, 66.7° (Epoch: 17 January)

Event Time Altitude Azimuth Distance (km) Brightness Sun altitude
Rises 03:48:18 0° 280° (W) 3,512 - -36.3°
Reaches altitude 10° 03:51:09 10° 292° (WNW) 2,620 - -35.9°
Maximum altitude 03:56:24 28° 350° (N) 1,710 - -35.1°
Exits shadow 03:57:46 26° 11° (NNE) 1,799 8.0 -35.0°
Drops below altitude 10° 04:01:50 10° 48° (NE) 2,716 9.4 -34.4°
Sets 04:04:50 0° 60° (ENE) 3,663 10.4 -33.9°
